Time,TemperatureF,DewpointF,PressureIn,WindDirection,WindDirectionDegrees,WindSpeedMPH,WindSpeedGustMPH,Humidity,HourlyPrecipIn,Conditions,Clouds,dailyrainin,SoftwareType,DateUTC
2013-02-19 00:01:00,-3.0,-8.0,30.43,ESE,115,4.0,-999.0,78,-99.99,,,-99.99,,2013-02-19 07:01:00,
2013-02-19 00:11:00,-3.0,-8.0,30.43,ESE,115,4.0,-999.0,78,-99.99,,,-99.99,,2013-02-19 07:11:00,
2013-02-19 00:22:00,-4.0,-9.0,30.43,ESE,116,3.0,-999.0,78,-99.99,,,-99.99,,2013-02-19 07:22:00,
2013-02-19 00:32:00,-5.0,-10.0,30.42,ESE,117,4.0,-999.0,79,-99.99,,,-99.99,,2013-02-19 07:32:00,
2013-02-19 00:42:00,-5.0,-10.0,30.42,ESE,117,4.0,-999.0,79,-99.99,,,-99.99,,2013-02-19 07:42:00,
2013-02-19 00:52:00,-5.0,-10.0,30.43,ESE,117,4.0,-999.0,79,-99.99,,,-99.99,,2013-02-19 07:52:00,
2013-02-19 01:02:00,-5.0,-10.0,30.43,SE,132,5.0,-999.0,80,-99.99,,,-99.99,,2013-02-19 08:02:00,
2013-02-19 01:11:00,-5.0,-10.0,30.43,SE,132,5.0,-999.0,80,-99.99,,,-99.99,,2013-02-19 08:11:00,
2013-02-19 01:21:00,-5.0,-10.0,30.43,SE,132,3.0,-999.0,80,-99.99,,,-99.99,,2013-02-19 08:21:00,
2013-02-19 01:31:00,-5.0,-10.0,30.43,SE,139,3.0,-999.0,80,-99.99,,,-99.99,,2013-02-19 08:31:00,
2013-02-19 01:42:00,-5.0,-10.0,30.43,SE,139,3.0,-999.0,80,-99.99,,,-99.99,,2013-02-19 08:42:00,
2013-02-19 01:52:00,-6.0,-11.0,30.43,SSE,148,5.0,-999.0,79,-99.99,,,-99.99,,2013-02-19 08:52:00,
2013-02-19 02:01:00,-6.0,-11.0,30.43,SE,144,5.0,-999.0,80,-99.99,,,-99.99,,2013-02-19 09:01:00,
2013-02-19 02:11:00,-6.0,-11.0,30.43,SE,144,5.0,-999.0,80,-99.99,,,-99.99,,2013-02-19 09:11:00,
2013-02-19 02:21:00,-6.0,-11.0,30.44,SE,146,5.0,-999.0,80,-99.99,,,-99.99,,2013-02-19 09:21:00,
2013-02-19 02:32:00,-6.0,-11.0,30.44,SE,146,4.0,-999.0,80,-99.99,,,-99.99,,2013-02-19 09:32:00,
2013-02-19 02:42:00,-6.0,-11.0,30.44,SE,146,4.0,-999.0,80,-99.99,,,-99.99,,2013-02-19 09:42:00,
2013-02-19 02:52:00,-7.0,-12.0,30.44,SE,146,2.0,-999.0,79,-99.99,,,-99.99,,2013-02-19 09:52:00,
2013-02-19 03:02:00,-7.0,-12.0,30.43,SE,138,3.0,-999.0,79,-99.99,,,-99.99,,2013-02-19 10:02:00,
2013-02-19 03:11:00,-7.0,-12.0,30.43,SE,138,3.0,-999.0,79,-99.99,,,-99.99,,2013-02-19 10:11:00,
2013-02-19 03:21:00,-7.0,-12.0,30.43,SE,138,3.0,-999.0,79,-99.99,,,-99.99,,2013-02-19 10:21:00,
2013-02-19 03:32:00,-8.0,-12.0,30.43,SE,142,7.0,-999.0,80,-99.99,,,-99.99,,2013-02-19 10:32:00,
2013-02-19 03:42:00,-8.0,-12.0,30.43,SE,142,7.0,-999.0,80,-99.99,,,-99.99,,2013-02-19 10:42:00,
2013-02-19 03:52:00,-7.0,-12.0,30.44,SE,140,6.0,-999.0,80,-99.99,,,-99.99,,2013-02-19 10:52:00,
2013-02-19 04:01:00,-7.0,-12.0,30.44,SE,140,6.0,-999.0,80,-99.99,,,-99.99,,2013-02-19 11:01:00,
2013-02-19 04:11:00,-7.0,-12.0,30.44,SE,140,6.0,-999.0,80,-99.99,,,-99.99,,2013-02-19 11:11:00,
2013-02-19 04:22:00,-8.0,-13.0,30.44,SE,125,6.0,-999.0,79,-99.99,,,-99.99,,2013-02-19 11:22:00,
2013-02-19 04:32:00,-8.0,-12.0,30.43,ESE,121,6.0,-999.0,80,-99.99,,,-99.99,,2013-02-19 11:32:00,
2013-02-19 04:42:00,-8.0,-12.0,30.43,ESE,121,6.0,-999.0,80,-99.99,,,-99.99,,2013-02-19 11:42:00,
2013-02-19 04:52:00,-8.0,-12.0,30.44,SE,130,6.0,-999.0,80,-99.99,,,-99.99,,2013-02-19 11:52:00,
2013-02-19 05:02:00,-8.0,-13.0,30.44,SSE,148,5.0,-999.0,79,-99.99,,,-99.99,,2013-02-19 12:02:00,
2013-02-19 05:12:00,-8.0,-13.0,30.44,SSE,148,5.0,-999.0,79,-99.99,,,-99.99,,2013-02-19 12:12:00,
2013-02-19 05:22:00,-9.0,-14.0,30.43,SE,141,6.0,-999.0,79,-99.99,,,-99.99,,2013-02-19 12:22:00,
2013-02-19 05:32:00,-8.0,-12.0,30.44,ESE,123,8.0,-999.0,80,-99.99,,,-99.99,,2013-02-19 12:32:00,
2013-02-19 05:42:00,-8.0,-12.0,30.44,ESE,123,8.0,-999.0,80,-99.99,,,-99.99,,2013-02-19 12:42:00,
2013-02-19 05:52:00,-8.0,-13.0,30.44,SE,127,6.0,-999.0,79,-99.99,,,-99.99,,2013-02-19 12:52:00,
2013-02-19 06:02:00,-9.0,-14.0,30.45,SE,129,5.0,-999.0,79,-99.99,,,-99.99,,2013-02-19 13:02:00,
2013-02-19 06:11:00,-9.0,-14.0,30.45,SE,129,5.0,-999.0,79,-99.99,,,-99.99,,2013-02-19 13:11:00,
2013-02-19 06:22:00,-9.0,-14.0,30.44,SE,128,4.0,-999.0,79,-99.99,,,-99.99,,2013-02-19 13:22:00,
2013-02-19 06:32:00,-9.0,-14.0,30.44,SE,128,5.0,-999.0,79,-99.99,,,-99.99,,2013-02-19 13:32:00,
2013-02-19 06:42:00,-9.0,-14.0,30.44,SE,128,5.0,-999.0,79,-99.99,,,-99.99,,2013-02-19 13:42:00,
2013-02-19 06:52:00,-9.0,-14.0,30.44,SE,126,8.0,-999.0,79,-99.99,,,-99.99,,2013-02-19 13:52:00,
2013-02-19 07:01:00,-9.0,-14.0,30.44,SE,126,8.0,-999.0,79,-99.99,,,-99.99,,2013-02-19 14:01:00,
2013-02-19 07:11:00,-9.0,-14.0,30.44,SE,126,8.0,-999.0,79,-99.99,,,-99.99,,2013-02-19 14:11:00,
2013-02-19 07:21:00,-8.0,-13.0,30.43,SE,128,10.0,-999.0,79,-99.99,,,-99.99,,2013-02-19 14:21:00,
2013-02-19 07:32:00,-8.0,-13.0,30.42,SE,127,11.0,-999.0,78,-99.99,,,-99.99,,2013-02-19 14:32:00,
2013-02-19 07:42:00,-8.0,-13.0,30.42,SE,127,11.0,-999.0,78,-99.99,,,-99.99,,2013-02-19 14:42:00,
2013-02-19 07:52:00,-8.0,-13.0,30.42,ESE,121,11.0,-999.0,78,-99.99,,,-99.99,,2013-02-19 14:52:00,
2013-02-19 08:01:00,-7.0,-12.0,30.42,SE,129,11.0,-999.0,79,-99.99,,,-99.99,,2013-02-19 15:01:00,
2013-02-19 08:11:00,-7.0,-12.0,30.42,SE,129,11.0,-999.0,79,-99.99,,,-99.99,,2013-02-19 15:11:00,
2013-02-19 08:21:00,-6.0,-11.0,30.43,ESE,123,12.0,-999.0,78,-99.99,,,-99.99,,2013-02-19 15:21:00,
2013-02-19 08:32:00,-6.0,-11.0,30.43,ESE,121,11.0,-999.0,78,-99.99,,,-99.99,,2013-02-19 15:32:00,
2013-02-19 08:42:00,-6.0,-11.0,30.43,ESE,121,11.0,-999.0,78,-99.99,,,-99.99,,2013-02-19 15:42:00,
2013-02-19 08:52:00,-5.0,-10.0,30.42,SE,124,14.0,-999.0,78,-99.99,,,-99.99,,2013-02-19 15:52:00,
2013-02-19 09:02:00,-4.0,-9.0,30.44,ESE,117,15.0,-999.0,77,-99.99,,,-99.99,,2013-02-19 16:02:00,
2013-02-19 09:11:00,-4.0,-9.0,30.44,ESE,117,15.0,-999.0,77,-99.99,,,-99.99,,2013-02-19 16:11:00,
2013-02-19 09:21:00,-3.0,-9.0,30.44,ESE,121,14.0,-999.0,76,-99.99,,,-99.99,,2013-02-19 16:21:00,
2013-02-19 09:32:00,-2.0,-8.0,30.44,ESE,119,16.0,-999.0,74,-99.99,,,-99.99,,2013-02-19 16:32:00,
2013-02-19 09:42:00,-2.0,-8.0,30.44,ESE,119,16.0,-999.0,74,-99.99,,,-99.99,,2013-02-19 16:42:00,
2013-02-19 09:51:00,-2.0,-9.0,30.44,ESE,122,17.0,-999.0,72,-99.99,,,-99.99,,2013-02-19 16:51:00,
2013-02-19 10:01:00,-1.0,-8.0,30.42,ESE,123,17.0,-999.0,72,-99.99,,,-99.99,,2013-02-19 17:01:00,
2013-02-19 10:11:00,-1.0,-8.0,30.42,ESE,123,17.0,-999.0,72,-99.99,,,-99.99,,2013-02-19 17:11:00,
2013-02-19 10:21:00,0.0,-8.0,30.42,ESE,117,18.0,-999.0,69,-99.99,,,-99.99,,2013-02-19 17:21:00,
2013-02-19 10:32:00,0.0,-8.0,30.42,ESE,121,17.0,-999.0,68,-99.99,,,-99.99,,2013-02-19 17:32:00,
2013-02-19 10:42:00,0.0,-8.0,30.42,ESE,121,17.0,-999.0,68,-99.99,,,-99.99,,2013-02-19 17:42:00,
2013-02-19 10:52:00,0.0,-8.0,30.42,ESE,118,17.0,-999.0,68,-99.99,,,-99.99,,2013-02-19 17:52:00,
2013-02-19 11:01:00,1.0,-8.0,30.42,ESE,117,18.0,-999.0,66,-99.99,,,-99.99,,2013-02-19 18:01:00,
2013-02-19 11:11:00,1.0,-8.0,30.42,ESE,117,18.0,-999.0,66,-99.99,,,-99.99,,2013-02-19 18:11:00,
2013-02-19 11:21:00,2.0,-7.0,30.42,ESE,122,19.0,-999.0,66,-99.99,,,-99.99,,2013-02-19 18:21:00,
2013-02-19 11:32:00,2.0,-6.0,30.41,ESE,118,18.0,-999.0,67,-99.99,,,-99.99,,2013-02-19 18:32:00,
2013-02-19 11:42:00,2.0,-6.0,30.41,ESE,118,18.0,-999.0,67,-99.99,,,-99.99,,2013-02-19 18:42:00,
2013-02-19 11:51:00,3.0,-6.0,30.40,SE,125,16.0,-999.0,65,-99.99,,,-99.99,,2013-02-19 18:51:00,
2013-02-19 12:01:00,3.0,-6.0,30.40,SE,125,16.0,-999.0,65,-99.99,,,-99.99,,2013-02-19 19:01:00,
2013-02-19 12:11:00,3.0,-6.0,30.40,SE,125,16.0,-999.0,65,-99.99,,,-99.99,,2013-02-19 19:11:00,
2013-02-19 12:21:00,5.0,-5.0,30.40,ESE,118,15.0,-999.0,63,-99.99,,,-99.99,,2013-02-19 19:21:00,
2013-02-19 12:32:00,5.0,-6.0,30.39,ESE,118,17.0,-999.0,60,-99.99,,,-99.99,,2013-02-19 19:32:00,
2013-02-19 12:41:00,5.0,-6.0,30.39,ESE,118,17.0,-999.0,60,-99.99,,,-99.99,,2013-02-19 19:41:00,
2013-02-19 12:51:00,6.0,-5.0,30.39,SE,131,18.0,-999.0,59,-99.99,,,-99.99,,2013-02-19 19:51:00,
2013-02-19 13:01:00,7.0,-5.0,30.39,ESE,119,19.0,-999.0,58,-99.99,,,-99.99,,2013-02-19 20:01:00,
2013-02-19 13:12:00,7.0,-5.0,30.39,ESE,119,19.0,-999.0,58,-99.99,,,-99.99,,2013-02-19 20:12:00,
2013-02-19 13:21:00,7.0,-4.0,30.36,SE,124,19.0,-999.0,59,-99.99,,,-99.99,,2013-02-19 20:21:00,
2013-02-19 13:32:00,8.0,-3.0,30.35,ESE,116,19.0,-999.0,60,-99.99,,,-99.99,,2013-02-19 20:32:00,
2013-02-19 13:42:00,8.0,-3.0,30.35,ESE,116,19.0,-999.0,60,-99.99,,,-99.99,,2013-02-19 20:42:00,
2013-02-19 13:52:00,8.0,-3.0,30.35,ESE,117,20.0,-999.0,59,-99.99,,,-99.99,,2013-02-19 20:52:00,
2013-02-19 14:02:00,8.0,-3.0,30.35,ESE,120,20.0,-999.0,59,-99.99,,,-99.99,,2013-02-19 21:02:00,
2013-02-19 14:11:00,8.0,-3.0,30.35,ESE,120,20.0,-999.0,59,-99.99,,,-99.99,,2013-02-19 21:11:00,
2013-02-19 14:21:00,9.0,-2.0,30.35,SE,126,18.0,-999.0,60,-99.99,,,-99.99,,2013-02-19 21:21:00,
2013-02-19 14:32:00,9.0,-2.0,30.36,SE,131,19.0,-999.0,61,-99.99,,,-99.99,,2013-02-19 21:32:00,
2013-02-19 14:42:00,9.0,-2.0,30.36,SE,131,19.0,-999.0,61,-99.99,,,-99.99,,2013-02-19 21:42:00,
2013-02-19 14:51:00,9.0,-2.0,30.35,ESE,113,19.0,-999.0,60,-99.99,,,-99.99,,2013-02-19 21:51:00,
2013-02-19 15:02:00,9.0,-2.0,30.34,ESE,115,16.0,-999.0,61,-99.99,,,-99.99,,2013-02-19 22:02:00,
2013-02-19 15:11:00,9.0,-2.0,30.34,ESE,115,16.0,-999.0,61,-99.99,,,-99.99,,2013-02-19 22:11:00,
2013-02-19 15:21:00,9.0,-1.0,30.33,SE,126,14.0,-999.0,63,-99.99,,,-99.99,,2013-02-19 22:21:00,
2013-02-19 15:32:00,9.0,-1.0,30.33,ESE,111,16.0,-999.0,62,-99.99,,,-99.99,,2013-02-19 22:32:00,
2013-02-19 15:41:00,9.0,-1.0,30.33,ESE,111,16.0,-999.0,62,-99.99,,,-99.99,,2013-02-19 22:41:00,
2013-02-19 15:52:00,9.0,-2.0,30.33,ESE,116,16.0,-999.0,61,-99.99,,,-99.99,,2013-02-19 22:52:00,
2013-02-19 16:01:00,9.0,-2.0,30.34,SE,125,17.0,-999.0,60,-99.99,,,-99.99,,2013-02-19 23:01:00,
2013-02-19 16:11:00,9.0,-2.0,30.34,SE,125,17.0,-999.0,60,-99.99,,,-99.99,,2013-02-19 23:11:00,
2013-02-19 16:21:00,9.0,-2.0,30.32,ESE,113,18.0,-999.0,61,-99.99,,,-99.99,,2013-02-19 23:21:00,
2013-02-19 16:32:00,9.0,-1.0,30.31,ESE,112,14.0,-999.0,63,-99.99,,,-99.99,,2013-02-19 23:32:00,
2013-02-19 16:41:00,9.0,-1.0,30.31,ESE,112,14.0,-999.0,63,-99.99,,,-99.99,,2013-02-19 23:41:00,
2013-02-19 16:52:00,9.0,-1.0,30.31,ESE,119,16.0,-999.0,62,-99.99,,,-99.99,,2013-02-19 23:52:00,
2013-02-19 17:01:00,9.0,-1.0,30.30,ESE,108,16.0,-999.0,63,-99.99,,,-99.99,,2013-02-20 00:01:00,
2013-02-19 17:11:00,9.0,-1.0,30.30,ESE,108,16.0,-999.0,63,-99.99,,,-99.99,,2013-02-20 00:11:00,
2013-02-19 17:21:00,8.0,-2.0,30.30,ESE,117,17.0,-999.0,64,-99.99,,,-99.99,,2013-02-20 00:21:00,
2013-02-19 17:32:00,8.0,-1.0,30.29,ESE,122,17.0,-999.0,66,-99.99,,,-99.99,,2013-02-20 00:32:00,
2013-02-19 17:42:00,8.0,-1.0,30.29,ESE,122,17.0,-999.0,66,-99.99,,,-99.99,,2013-02-20 00:42:00,
2013-02-19 17:52:00,8.0,-1.0,30.30,ESE,118,14.0,-999.0,66,-99.99,,,-99.99,,2013-02-20 00:52:00,
2013-02-19 18:02:00,8.0,-1.0,30.30,ESE,121,14.0,-999.0,67,-99.99,,,-99.99,,2013-02-20 01:02:00,
2013-02-19 18:11:00,8.0,-1.0,30.30,ESE,121,14.0,-999.0,67,-99.99,,,-99.99,,2013-02-20 01:11:00,
2013-02-19 18:21:00,8.0,-1.0,30.30,ESE,118,15.0,-999.0,67,-99.99,,,-99.99,,2013-02-20 01:21:00,
2013-02-19 18:32:00,7.0,-2.0,30.30,ESE,119,16.0,-999.0,67,-99.99,,,-99.99,,2013-02-20 01:32:00,
2013-02-19 18:42:00,7.0,-2.0,30.30,ESE,119,16.0,-999.0,67,-99.99,,,-99.99,,2013-02-20 01:42:00,
2013-02-19 18:52:00,7.0,-2.0,30.30,ESE,117,19.0,-999.0,67,-99.99,,,-99.99,,2013-02-20 01:52:00,
2013-02-19 19:01:00,7.0,-2.0,30.32,ESE,123,16.0,-999.0,67,-99.99,,,-99.99,,2013-02-20 02:01:00,
2013-02-19 19:11:00,7.0,-2.0,30.32,ESE,123,16.0,-999.0,67,-99.99,,,-99.99,,2013-02-20 02:11:00,
2013-02-19 19:21:00,7.0,-1.0,30.32,ESE,122,14.0,-999.0,68,-99.99,,,-99.99,,2013-02-20 02:21:00,
2013-02-19 19:32:00,7.0,-1.0,30.30,ESE,113,17.0,-999.0,68,-99.99,,,-99.99,,2013-02-20 02:32:00,
2013-02-19 19:42:00,7.0,-1.0,30.30,ESE,113,17.0,-999.0,68,-99.99,,,-99.99,,2013-02-20 02:42:00,
2013-02-19 19:52:00,7.0,-1.0,30.29,ESE,111,18.0,-999.0,69,-99.99,,,-99.99,,2013-02-20 02:52:00,
2013-02-19 20:01:00,7.0,-1.0,30.29,ESE,111,18.0,-999.0,69,-99.99,,,-99.99,,2013-02-20 03:01:00,
2013-02-19 20:12:00,7.0,-1.0,30.29,ESE,111,18.0,-999.0,69,-99.99,,,-99.99,,2013-02-20 03:12:00,
2013-02-19 20:22:00,6.0,-2.0,30.29,ESE,122,20.0,-999.0,70,-99.99,,,-99.99,,2013-02-20 03:22:00,
2013-02-19 20:32:00,6.0,-2.0,30.28,ESE,121,19.0,-999.0,70,-99.99,,,-99.99,,2013-02-20 03:32:00,
2013-02-19 20:42:00,6.0,-2.0,30.28,ESE,121,19.0,-999.0,70,-99.99,,,-99.99,,2013-02-20 03:42:00,
2013-02-19 20:51:00,6.0,-1.0,30.28,ESE,122,19.0,-999.0,71,-99.99,,,-99.99,,2013-02-20 03:51:00,
2013-02-19 21:01:00,6.0,-1.0,30.27,SE,124,20.0,-999.0,72,-99.99,,,-99.99,,2013-02-20 04:01:00,
2013-02-19 21:11:00,6.0,-1.0,30.27,SE,124,20.0,-999.0,72,-99.99,,,-99.99,,2013-02-20 04:11:00,
2013-02-19 21:21:00,6.0,-1.0,30.26,ESE,123,22.0,-999.0,72,-99.99,,,-99.99,,2013-02-20 04:21:00,
2013-02-19 21:31:00,6.0,-1.0,30.26,ESE,113,19.0,-999.0,72,-99.99,,,-99.99,,2013-02-20 04:31:00,
2013-02-19 21:42:00,6.0,-1.0,30.26,ESE,113,19.0,-999.0,72,-99.99,,,-99.99,,2013-02-20 04:42:00,
2013-02-19 21:52:00,6.0,-1.0,30.27,ESE,120,13.0,-999.0,72,-99.99,,,-99.99,,2013-02-20 04:52:00,
2013-02-19 22:02:00,5.0,-2.0,30.26,SE,128,17.0,-999.0,73,-99.99,,,-99.99,,2013-02-20 05:02:00,
2013-02-19 22:12:00,5.0,-2.0,30.26,SE,128,17.0,-999.0,73,-99.99,,,-99.99,,2013-02-20 05:12:00,
2013-02-19 22:22:00,5.0,-2.0,30.26,ESE,122,17.0,-999.0,73,-99.99,,,-99.99,,2013-02-20 05:22:00,
2013-02-19 22:32:00,5.0,-2.0,30.26,ESE,119,17.0,-999.0,73,-99.99,,,-99.99,,2013-02-20 05:32:00,
2013-02-19 22:43:00,5.0,-2.0,30.26,ESE,119,17.0,-999.0,73,-99.99,,,-99.99,,2013-02-20 05:43:00,
2013-02-19 22:52:00,5.0,-2.0,30.26,ESE,121,17.0,-999.0,73,-99.99,,,-99.99,,2013-02-20 05:52:00,
2013-02-19 23:01:00,5.0,-2.0,30.25,ESE,121,18.0,-999.0,73,-99.99,,,-99.99,,2013-02-20 06:01:00,
2013-02-19 23:11:00,5.0,-2.0,30.25,ESE,121,18.0,-999.0,73,-99.99,,,-99.99,,2013-02-20 06:11:00,
2013-02-19 23:21:00,5.0,-1.0,30.24,ESE,114,18.0,-999.0,74,-99.99,,,-99.99,,2013-02-20 06:21:00,
2013-02-19 23:32:00,6.0,0.0,30.24,ESE,121,17.0,-999.0,74,-99.99,,,-99.99,,2013-02-20 06:32:00,
2013-02-19 23:42:00,6.0,0.0,30.24,ESE,121,17.0,-999.0,74,-99.99,,,-99.99,,2013-02-20 06:42:00,
2013-02-19 23:51:00,6.0,-1.0,30.24,ESE,116,17.0,-999.0,73,-99.99,,,-99.99,,2013-02-20 06:51:00,